Location: Unspecified
(0.0000°N, 0.0000°E)
Time: 17:54:22
(UTC+00:00)

Hubble Space Telescope - Pass Details

Date: 10 May 2021
Orbit: 535 x 539 km, 28.5° (Epoch: 14 May)

Event Time Altitude Azimuth Distance (km) Brightness Sun altitude
Rises 18:47:08 0° 279° (W) 2,672 6.3 -12.1°
Reaches altitude 10° 18:49:41 10° 265° (W) 1,783 4.6 -12.7°
Maximum altitude 18:53:06 25° 209° (SSW) 1,108 2.5 -13.5°
Enters shadow 18:56:04 12° 157° (SSE) 1,644 2.9 -14.2°
